Time,TemperatureF,DewpointF,PressureIn,WindDirection,WindDirectionDegrees,WindSpeedMPH,WindSpeedGustMPH,Humidity,HourlyPrecipIn,Conditions,Clouds,dailyrainin,SoftwareType,DateUTC
2013-11-01 00:14:00,52.6,52.0,29.72,ENE,71,5.0,16.0,98,0.00,,,0.00,weatherlink.com 1.10,2013-11-01 04:14:00,
2013-11-01 00:29:00,52.7,52.0,29.72,ENE,61,5.0,12.0,98,0.00,,,0.00,weatherlink.com 1.10,2013-11-01 04:29:00,
2013-11-01 00:44:00,52.8,52.0,29.71,NE,34,9.0,17.0,98,0.00,,,0.00,weatherlink.com 1.10,2013-11-01 04:44:00,
2013-11-01 00:59:00,52.6,52.0,29.70,ENE,57,8.0,24.0,98,0.00,,,0.00,weatherlink.com 1.10,2013-11-01 04:59:00,
2013-11-01 01:14:00,52.5,52.0,29.70,ENE,71,9.0,17.0,98,0.00,,,0.00,weatherlink.com 1.10,2013-11-01 05:14:00,
2013-11-01 01:29:00,52.4,52.0,29.69,ENE,66,5.0,18.0,98,0.00,,,0.00,weatherlink.com 1.10,2013-11-01 05:29:00,
2013-11-01 01:44:00,52.3,52.0,29.69,ENE,71,5.0,11.0,98,0.00,,,0.00,weatherlink.com 1.10,2013-11-01 05:44:00,
2013-11-01 01:59:00,52.3,52.0,29.69,NE,36,5.0,20.0,98,0.00,,,0.00,weatherlink.com 1.10,2013-11-01 05:59:00,
2013-11-01 02:14:00,52.4,52.0,29.68,ENE,69,4.0,26.0,98,0.00,,,0.00,weatherlink.com 1.10,2013-11-01 06:14:00,
2013-11-01 02:29:00,52.4,52.0,29.67,ENE,64,3.0,17.0,98,0.00,,,0.00,weatherlink.com 1.10,2013-11-01 06:29:00,
2013-11-01 02:44:00,52.4,52.0,29.66,ENE,67,4.0,14.0,98,0.00,,,0.00,weatherlink.com 1.10,2013-11-01 06:44:00,
2013-11-01 02:59:00,52.5,52.0,29.67,ENE,59,5.0,11.0,98,0.00,,,0.00,weatherlink.com 1.10,2013-11-01 06:59:00,
2013-11-01 03:14:00,52.6,52.0,29.65,NE,51,8.0,14.0,98,0.00,,,0.00,weatherlink.com 1.10,2013-11-01 07:14:00,
2013-11-01 03:29:00,52.6,52.0,29.65,ENE,61,5.0,14.0,98,0.00,,,0.00,weatherlink.com 1.10,2013-11-01 07:29:00,
2013-11-01 03:44:00,52.5,52.0,29.65,ENE,71,5.0,14.0,98,0.00,,,0.00,weatherlink.com 1.10,2013-11-01 07:44:00,
2013-11-01 03:59:00,52.3,52.0,29.64,NE,56,3.0,16.0,98,0.00,,,0.00,weatherlink.com 1.10,2013-11-01 07:59:00,
2013-11-01 04:14:00,52.0,52.0,29.64,ENE,69,5.0,11.0,98,0.00,,,0.00,weatherlink.com 1.10,2013-11-01 08:14:00,
2013-11-01 04:29:00,51.7,51.0,29.63,ENE,60,3.0,14.0,98,0.00,,,0.00,weatherlink.com 1.10,2013-11-01 08:29:00,
2013-11-01 04:44:00,51.5,51.0,29.63,NE,55,6.0,15.0,98,0.00,,,0.00,weatherlink.com 1.10,2013-11-01 08:44:00,
2013-11-01 04:59:00,51.4,51.0,29.63,ENE,67,8.0,14.0,98,0.00,,,0.00,weatherlink.com 1.10,2013-11-01 08:59:00,
2013-11-01 05:14:00,51.6,51.0,29.64,ENE,62,5.0,11.0,98,0.00,,,0.00,weatherlink.com 1.10,2013-11-01 09:14:00,
2013-11-01 05:29:00,51.7,51.0,29.64,ESE,117,1.0,9.0,98,0.00,,,0.00,weatherlink.com 1.10,2013-11-01 09:29:00,
2013-11-01 05:44:00,51.9,51.0,29.64,ENE,60,7.0,11.0,98,0.00,,,0.00,weatherlink.com 1.10,2013-11-01 09:44:00,
2013-11-01 05:59:00,51.8,51.0,29.64,NE,53,2.0,10.0,98,0.00,,,0.00,weatherlink.com 1.10,2013-11-01 09:59:00,
2013-11-01 06:14:00,52.1,52.0,29.64,ENE,61,5.0,12.0,98,0.00,,,0.00,weatherlink.com 1.10,2013-11-01 10:14:00,
2013-11-01 06:29:00,52.5,52.0,29.65,ENE,57,5.0,11.0,98,0.00,,,0.00,weatherlink.com 1.10,2013-11-01 10:29:00,
2013-11-01 06:44:00,52.7,52.0,29.65,ENE,65,2.0,8.0,98,0.00,,,0.00,weatherlink.com 1.10,2013-11-01 10:44:00,
2013-11-01 06:59:00,52.7,52.0,29.66,ENE,76,3.0,8.0,98,0.00,,,0.00,weatherlink.com 1.10,2013-11-01 10:59:00,
2013-11-01 07:14:00,52.7,52.0,29.68,NNE,14,1.0,5.0,98,0.00,,,0.00,weatherlink.com 1.10,2013-11-01 11:14:00,
2013-11-01 07:29:00,51.6,51.0,29.68,ENE,69,2.0,15.0,98,0.00,,,0.00,weatherlink.com 1.10,2013-11-01 11:29:00,
2013-11-01 07:44:00,49.3,49.0,29.68,North,5,5.0,18.0,98,0.00,,,0.00,weatherlink.com 1.10,2013-11-01 11:44:00,
2013-11-01 07:59:00,48.6,48.0,29.70,NE,35,5.0,8.0,98,0.00,,,0.00,weatherlink.com 1.10,2013-11-01 11:59:00,
2013-11-01 08:14:00,48.4,48.0,29.70,North,350,1.0,8.0,98,0.00,,,0.00,weatherlink.com 1.10,2013-11-01 12:14:00,
2013-11-01 08:29:00,48.2,48.0,29.69,WNW,295,0.0,5.0,98,0.00,,,0.00,weatherlink.com 1.10,2013-11-01 12:29:00,
2013-11-01 08:44:00,48.1,48.0,29.69,NW,319,6.0,10.0,98,0.00,,,0.00,weatherlink.com 1.10,2013-11-01 12:44:00,
2013-11-01 08:59:00,48.1,48.0,29.71,NE,48,1.0,10.0,98,0.00,,,0.00,weatherlink.com 1.10,2013-11-01 12:59:00,
2013-11-01 09:14:00,48.2,48.0,29.72,NNE,26,2.0,4.0,98,0.00,,,0.00,weatherlink.com 1.10,2013-11-01 13:14:00,
2013-11-01 09:29:00,48.1,48.0,29.72,NW,317,0.0,5.0,98,0.00,,,0.00,weatherlink.com 1.10,2013-11-01 13:29:00,
2013-11-01 09:44:00,48.1,48.0,29.73,WNW,284,0.0,5.0,98,0.00,,,0.00,weatherlink.com 1.10,2013-11-01 13:44:00,
2013-11-01 09:59:00,48.0,48.0,29.72,NNE,28,0.0,8.0,98,0.00,,,0.00,weatherlink.com 1.10,2013-11-01 13:59:00,
2013-11-01 10:14:00,47.7,47.0,29.72,North,360,0.0,6.0,98,0.00,,,0.00,weatherlink.com 1.10,2013-11-01 14:14:00,
2013-11-01 10:29:00,47.3,47.0,29.71,ENE,68,0.0,6.0,98,0.00,,,0.00,weatherlink.com 1.10,2013-11-01 14:29:00,
2013-11-01 10:44:00,48.4,48.0,29.70,NNE,29,3.0,8.0,98,0.00,,,0.00,weatherlink.com 1.10,2013-11-01 14:44:00,
2013-11-01 10:59:00,49.6,49.0,29.70,NNW,333,2.0,6.0,98,0.00,,,0.00,weatherlink.com 1.10,2013-11-01 14:59:00,
2013-11-01 11:14:00,51.3,51.0,29.70,NNE,26,3.0,7.0,97,0.00,,,0.00,weatherlink.com 1.10,2013-11-01 15:14:00,
2013-11-01 11:30:00,52.8,50.0,29.69,NNE,29,3.0,7.0,90,0.00,,,0.00,weatherlink.com 1.10,2013-11-01 15:30:00,
2013-11-01 11:45:00,54.1,47.0,29.69,North,9,1.0,9.0,78,0.00,,,0.00,weatherlink.com 1.10,2013-11-01 15:45:00,
2013-11-01 12:00:00,55.0,46.0,29.69,NNE,16,6.0,11.0,71,0.00,,,0.00,weatherlink.com 1.10,2013-11-01 16:00:00,
2013-11-01 12:15:00,55.8,45.0,29.68,NE,39,5.0,13.0,67,0.00,,,0.00,weatherlink.com 1.10,2013-11-01 16:15:00,
2013-11-01 12:30:00,57.0,46.0,29.68,ENE,72,4.0,10.0,66,0.00,,,0.00,weatherlink.com 1.10,2013-11-01 16:30:00,
2013-11-01 12:45:00,58.1,46.0,29.68,ESE,103,1.0,8.0,65,0.00,,,0.00,weatherlink.com 1.10,2013-11-01 16:45:00,
2013-11-01 13:00:00,59.3,44.0,29.67,NE,41,4.0,8.0,58,0.00,,,0.00,weatherlink.com 1.10,2013-11-01 17:00:00,
2013-11-01 13:15:00,60.0,44.0,29.66,ENE,67,0.0,6.0,57,0.00,,,0.00,weatherlink.com 1.10,2013-11-01 17:15:00,
2013-11-01 13:30:00,60.5,42.0,29.66,NE,51,1.0,9.0,50,0.00,,,0.00,weatherlink.com 1.10,2013-11-01 17:30:00,
2013-11-01 13:45:00,60.5,43.0,29.65,ENE,67,3.0,10.0,53,0.00,,,0.00,weatherlink.com 1.10,2013-11-01 17:45:00,
2013-11-01 14:00:00,61.0,42.0,29.65,ESE,102,4.0,9.0,50,0.00,,,0.00,weatherlink.com 1.10,2013-11-01 18:00:00,
2013-11-01 14:15:00,61.2,39.0,29.64,ENE,70,0.0,8.0,44,0.00,,,0.00,weatherlink.com 1.10,2013-11-01 18:15:00,
2013-11-01 14:30:00,62.3,41.0,29.64,East,83,0.0,6.0,45,0.00,,,0.00,weatherlink.com 1.10,2013-11-01 18:30:00,
2013-11-01 14:45:00,62.4,39.0,29.63,NNW,344,3.0,10.0,43,0.00,,,0.00,weatherlink.com 1.10,2013-11-01 18:45:00,
2013-11-01 15:00:00,61.6,39.0,29.63,NE,53,1.0,10.0,44,0.00,,,0.00,weatherlink.com 1.10,2013-11-01 19:00:00,
2013-11-01 15:15:00,61.4,41.0,29.63,NE,42,0.0,4.0,47,0.00,,,0.00,weatherlink.com 1.10,2013-11-01 19:15:00,
2013-11-01 15:30:00,62.2,40.0,29.63,ENE,61,0.0,7.0,44,0.00,,,0.00,weatherlink.com 1.10,2013-11-01 19:30:00,
2013-11-01 15:45:00,61.6,41.0,29.62,North,355,0.0,3.0,47,0.00,,,0.00,weatherlink.com 1.10,2013-11-01 19:45:00,
2013-11-01 16:00:00,60.9,38.0,29.62,ENE,62,2.0,4.0,43,0.00,,,0.00,weatherlink.com 1.10,2013-11-01 20:00:00,
2013-11-01 16:15:00,61.0,39.0,29.61,NW,313,0.0,7.0,44,0.00,,,0.00,weatherlink.com 1.10,2013-11-01 20:15:00,
2013-11-01 16:30:00,60.3,39.0,29.61,SW,230,0.0,7.0,46,0.00,,,0.00,weatherlink.com 1.10,2013-11-01 20:30:00,
2013-11-01 16:45:00,59.1,38.0,29.60,SW,229,2.0,10.0,46,0.00,,,0.00,weatherlink.com 1.10,2013-11-01 20:45:00,
2013-11-01 17:00:00,57.8,39.0,29.60,NW,315,2.0,6.0,49,0.00,,,0.00,weatherlink.com 1.10,2013-11-01 21:00:00,
2013-11-01 17:15:00,57.2,39.0,29.61,WNW,289,0.0,5.0,52,0.00,,,0.00,weatherlink.com 1.10,2013-11-01 21:15:00,
2013-11-01 17:30:00,56.4,39.0,29.61,WNW,296,0.0,4.0,53,0.00,,,0.00,weatherlink.com 1.10,2013-11-01 21:30:00,
2013-11-01 17:45:00,56.0,40.0,29.61,SW,224,0.0,7.0,55,0.00,,,0.00,weatherlink.com 1.10,2013-11-01 21:45:00,
2013-11-01 18:00:00,54.8,40.0,29.61,NW,318,0.0,4.0,58,0.00,,,0.00,weatherlink.com 1.10,2013-11-01 22:00:00,
2013-11-01 18:15:00,53.6,40.0,29.61,NW,314,4.0,5.0,60,0.00,,,0.00,weatherlink.com 1.10,2013-11-01 22:15:00,
2013-11-01 18:30:00,52.4,41.0,29.62,West,276,2.0,5.0,65,0.00,,,0.00,weatherlink.com 1.10,2013-11-01 22:30:00,
2013-11-01 18:45:00,51.7,41.0,29.62,NW,316,1.0,7.0,67,0.00,,,0.00,weatherlink.com 1.10,2013-11-01 22:45:00,
2013-11-01 19:00:00,51.2,41.0,29.62,NNW,328,0.0,5.0,68,0.00,,,0.00,weatherlink.com 1.10,2013-11-01 23:00:00,
2013-11-01 19:15:00,50.4,41.0,29.63,SW,232,4.0,7.0,69,0.00,,,0.00,weatherlink.com 1.10,2013-11-01 23:15:00,
2013-11-01 19:30:00,49.7,41.0,29.64,NW,317,1.0,6.0,71,0.00,,,0.00,weatherlink.com 1.10,2013-11-01 23:30:00,
2013-11-01 19:45:00,49.0,41.0,29.64,North,5,0.0,6.0,74,0.00,,,0.00,weatherlink.com 1.10,2013-11-01 23:45:00,
2013-11-01 20:00:00,48.4,41.0,29.64,NNW,337,1.0,7.0,76,0.00,,,0.00,weatherlink.com 1.10,2013-11-02 00:00:00,
2013-11-01 20:15:00,47.9,41.0,29.64,NW,313,1.0,7.0,77,0.00,,,0.00,weatherlink.com 1.10,2013-11-02 00:15:00,
2013-11-01 20:30:00,47.6,41.0,29.64,NW,314,2.0,9.0,78,0.00,,,0.00,weatherlink.com 1.10,2013-11-02 00:30:00,
2013-11-01 20:45:00,47.2,41.0,29.65,SW,232,2.0,8.0,79,0.00,,,0.00,weatherlink.com 1.10,2013-11-02 00:45:00,
2013-11-01 21:00:00,47.0,41.0,29.65,West,264,5.0,10.0,80,0.00,,,0.00,weatherlink.com 1.10,2013-11-02 01:00:00,
2013-11-01 21:16:00,46.6,40.0,29.64,NW,313,5.0,9.0,79,0.00,,,0.00,weatherlink.com 1.10,2013-11-02 01:16:00,
2013-11-01 21:31:00,46.5,39.0,29.64,ENE,74,2.0,8.0,74,0.00,,,0.00,weatherlink.com 1.10,2013-11-02 01:31:00,
2013-11-01 21:46:00,45.9,39.0,29.64,NNW,347,5.0,7.0,78,0.00,,,0.00,weatherlink.com 1.10,2013-11-02 01:46:00,
2013-11-01 22:01:00,45.4,40.0,29.65,WNW,302,0.0,6.0,81,0.00,,,0.00,weatherlink.com 1.10,2013-11-02 02:01:00,
2013-11-01 22:16:00,44.8,40.0,29.65,NNW,331,3.0,5.0,83,0.00,,,0.00,weatherlink.com 1.10,2013-11-02 02:16:00,
2013-11-01 22:31:00,44.7,41.0,29.65,NW,306,0.0,9.0,85,0.00,,,0.00,weatherlink.com 1.10,2013-11-02 02:31:00,
2013-11-01 22:46:00,44.8,41.0,29.65,NW,315,3.0,9.0,85,0.00,,,0.00,weatherlink.com 1.10,2013-11-02 02:46:00,
2013-11-01 23:01:00,44.7,41.0,29.65,NNE,19,1.0,8.0,85,0.00,,,0.00,weatherlink.com 1.10,2013-11-02 03:01:00,
2013-11-01 23:16:00,44.7,41.0,29.66,NNW,342,0.0,8.0,86,0.00,,,0.00,weatherlink.com 1.10,2013-11-02 03:16:00,
2013-11-01 23:31:00,44.4,41.0,29.66,NW,314,1.0,6.0,86,0.00,,,0.00,weatherlink.com 1.10,2013-11-02 03:31:00,
2013-11-01 23:46:00,44.6,41.0,29.65,NW,305,4.0,10.0,86,0.00,,,0.00,weatherlink.com 1.10,2013-11-02 03:46:00,